Regional Weather Roundup
Issued by NWS

Home | Current Version | Previous Version | Text Only | Print | Product List | Glossary On
Versions: 1 2 3 4 5 6 7 8 9 10 11 12 13 14 15 16 17 18 19 20 21 22 23 24 25 26 27 28 29 30 31 32 33 34 35 36 37 38 39 40 41 42 43 44 45 46 47 48 49 50
767
ASUS46 KSEW 031510
RWRWA

WASHINGTON REGIONAL WEATHER ROUNDUP
NATIONAL WEATHER SERVICE SEATTLE WA
700 AM PST SAT DEC 03 2016

NOTE:"FAIR" INDICATES FEW OR NO CLOUDS BELOW 12,000 FEET WITH NO
SIGNIFICANT WEATHER AND/OR OBSTRUCTIONS TO VISIBILITY.

WAZ507-509-555>559-031600-
SEATTLE, TACOMA, EVERETT, AND VICINITY

CITY           SKY/WX    TMP DP  RH WIND       PRES   REMARKS
EVERETT        CLOUDY    43  42  97 SE7       30.26R
BOEING FIELD   MOCLDY    46  42  86 S5        30.27R
RENTON         CLOUDY    46  41  82 S8        30.27R
SEATAC AIRPORT MOCLDY    45  42  89 S12       30.26R
JBLM-MCCHORD   MOCLDY    43  42  99 S12       30.28R
PUYALLUP       CLOUDY    45  41  87 SW8G14    30.28S
BREMERTON      MOCLDY    34  32  93 CALM      30.29S
JBLM-FT LEWIS  MOCLDY    42  42 100 S10       30.29R
TACOMA NARROWS MOCLDY    44  42  93 S14G21    30.28R
$$

WAZ001-503-506-510-514-515-031600-
NORTH INTERIOR

CITY           SKY/WX    TMP DP  RH WIND       PRES   REMARKS
BELLINGHAM     PTCLDY    45  40  82 S6        30.22R
FRIDAY HARBOR  MOCLDY    46  40  79 VRB5      30.24R
EASTSOUND      MOCLDY    45  39  81 SW6       30.21R
PORT ANGELES   MOCLDY    45  37  73 SW12      30.24R
EDIZ HOOK      FAIR      46  38  76 CALM      30.24R
PORT TOWNSEND    N/A     39  39 100 CALM      30.27R
NAS WHIDBEY    MOCLDY    50  40  68 W12       30.29R
ARLINGTON      CLOUDY    45  36  70 S6        30.27S
BURLINGTON     MOCLDY    43  41  93 CALM      30.25R
$$

WAZ020-022-039-040-504-511-512-031600-
SOUTHWEST INTERIOR

CITY           SKY/WX    TMP DP  RH WIND       PRES   REMARKS
SHELTON        MOCLDY    44  40  85 SW12G18   30.27R
OLYMPIA        MOCLDY    42  41  96 S8        30.30R
CHEHALIS       CLOUDY    41  41 100 S7        30.32S
KELSO          CLOUDY    44  43  96 SE6       30.37R
VANCOUVER      CLOUDY    45  43  93 CALM      30.37R
SCAPPOOSE, OR  MOCLDY    40  39  97 NW3       30.36R
PORTLAND, OR   LGT RAIN  46  43  89 CALM      30.37R
$$

WAZ021-516-517-031600-
WASHINGTON COAST

CITY           SKY/WX    TMP DP  RH WIND       PRES   REMARKS
FORKS          HVY RAIN  42  41  96 VRB7      30.28R FOG
HOQUIAM        LGT RAIN  46  43  89 W9        30.31R FOG
ASTORIA, OR    CLOUDY    45  40  82 CALM      30.34R
$$

WAZ019-023-024-040-567>569-031600-
CASCADE MOUNTAINS AND COLUMBIA GORGE

CITY           SKY/WX    TMP DP  RH WIND       PRES   REMARKS
STAMPEDE PASS  CLOUDY    30  30 100 W14G24    30.14R WCI  19
TROUTDALE, OR  LGT RAIN  46  44  93 W3        30.37R
THE DALLES, OR CLOUDY    49  39  68 NW5       30.26R
$$

WAZ026-027-041>044-520-521-031600-
EAST SLOPES

CITY           SKY/WX    TMP DP  RH WIND       PRES   REMARKS
OMAK           CLOUDY    35  30  82 S7        30.12R
WENATCHEE      CLEAR     29  28  96 CALM      30.15R
ELLENSBURG     CLEAR     39  31  72 W5        30.17R
YAKIMA         PTCLDY    27  25  92 VRB3      30.20R
$$

WAZ028-034-035-031600-
COLUMBIA BASIN

CITY           SKY/WX    TMP DP  RH WIND       PRES   REMARKS
EPHRATA        MOCLDY    27  23  85 N5        30.15R FOG
MOSES LAKE     MOCLDY    27  25  92 N5        30.17R
PASCO          CLOUDY    46  37  71 W15       30.21R
HERMISTON, OR  CLOUDY    46  37  71 SW12      30.22S
$$

WAZ036>038-031600-
NORTHEAST WASHINGTON

CITY           SKY/WX    TMP DP  RH WIND       PRES   REMARKS
SPOKANE GEIGER PTCLDY    32  30  92 W9        30.09R
SPOKANE FELTS  CLOUDY    36  34  92 CALM      30.12R
FAIRCHILD AFB  CLEAR     31  31 100 SW9       30.08R
COEURDALENE,ID CLOUDY    35  34  96 S9        30.10R
DEER PARK      CLOUDY    33  32  96 S6        30.09R
$$

WAZ029>033-031600-
SOUTHEAST WASHINGTON

CITY           SKY/WX    TMP DP  RH WIND       PRES   REMARKS
PULLMAN        PTCLDY    37  33  85 W15       30.15R
LEWISTON, ID   CLOUDY    42  33  70 S8        30.18R
WALLA WALLA    CLOUDY    43  35  73 S10       30.22R
PENDLETON, OR  CLOUDY    43  34  70 W16       30.21R
$$




USA.gov is the U.S. government's official web portal to all federal, state and local government web resources and services.